Location: Sagn�
(15.2046°N, 12.7898°W)
Time: 13:56:33
(UTC+00:00)

Lacrosse 5 rocket - Pass Details

Date: 08 May 2021
Orbit: 458 x 636 km, 57.0° (Epoch: 14 June)

Event Time Altitude Azimuth Distance (km) Brightness Sun altitude
Rises 20:47:11 0° 327° (NNW) 2,831 5.9 -22.4°
Reaches altitude 10° 20:49:25 10° 326° (NW) 1,951 4.9 -22.9°
Maximum altitude 20:53:53 82° 240° (WSW) 632 1.5 -23.8°
Enters shadow 20:54:10 76° 186° (S) 643 1.4 -23.9°
